• In Hungary
  • List of Countries
  • For 7 days
  • Water Temperature
  • Satellite Maps
  • Weather Map
  • News
  • Weather Widgets
  • user-avatar
    Login

    Hourly Weather Ilkino

    Today, 16 July, Monday

    Time Temperature Precipitation Wind Pressure Humidity
    00:00 +19°C° 0 mm 3 mps 736 mmHg 91%
    01:00 +19°C° 0 mm 3 mps 736 mmHg 92%
    02:00 +19°C° 0 mm 3 mps 736 mmHg 92%
    03:00 +18°C° 0 mm 3 mps 737 mmHg 93%
    04:00 +19°C° 0 mm 3 mps 737 mmHg 94%
    05:00 +19°C° 0.9 mm 3 mps 737 mmHg 93%
    06:00 +20°C° 0.9 mm 3 mps 737 mmHg 91%
    07:00 +21°C° 0.9 mm 4 mps 737 mmHg 90%
    08:00 +22°C° 0.1 mm 4 mps 737 mmHg 85%
    09:00 +25°C° 0.1 mm 4 mps 738 mmHg 81%
    10:00 +26°C° 0 mm 4 mps 738 mmHg 75%
    11:00 +26°C° 1.3 mm 4 mps 738 mmHg 74%
    12:00 +27°C° 1.3 mm 4 mps 738 mmHg 73%
    13:00 +27°C° 1.3 mm 4 mps 738 mmHg 71%
    14:00 +27°C° 0.1 mm 4 mps 738 mmHg 70%
    15:00 +27°C° 0.1 mm 4 mps 737 mmHg 69%
    16:00 +28°C° 0.1 mm 4 mps 737 mmHg 67%
    17:00 +27°C° 0 mm 3 mps 737 mmHg 70%
    18:00 +27°C° 0 mm 3 mps 737 mmHg 73%
    19:00 +26°C° 0 mm 2 mps 737 mmHg 76%
    20:00 +25°C° 0 mm 2 mps 737 mmHg 78%
    21:00 +23°C° 0 mm 2 mps 737 mmHg 80%
    22:00 +21°C° 0 mm 2 mps 737 mmHg 82%
    23:00 +20°C° 0 mm 3 mps 737 mmHg 83%

    Tomorrow, 17 July, Tuesday

    Time Temperature Precipitation Wind Pressure Humidity
    00:00 +20°C° 0 mm 3 mps 737 mmHg 84%
    01:00 +19°C° 0 mm 3 mps 737 mmHg 85%
    02:00 +19°C° 0 mm 3 mps 737 mmHg 85%
    03:00 +18°C° 0 mm 3 mps 737 mmHg 85%
    04:00 +18°C° 0 mm 3 mps 737 mmHg 84%
    05:00 +18°C° 0 mm 3 mps 737 mmHg 84%
    06:00 +19°C° 0 mm 4 mps 737 mmHg 83%
    07:00 +19°C° 0 mm 4 mps 737 mmHg 83%
    08:00 +20°C° 0 mm 4 mps 737 mmHg 82%
    09:00 +20°C° 0 mm 4 mps 737 mmHg 80%
    10:00 +21°C° 0 mm 4 mps 737 mmHg 79%
    11:00 +22°C° 0 mm 4 mps 737 mmHg 79%
    12:00 +22°C° 0 mm 5 mps 737 mmHg 80%
    13:00 +23°C° 0 mm 5 mps 736 mmHg 80%
    14:00 +23°C° 0.1 mm 5 mps 736 mmHg 79%
    15:00 +25°C° 0.1 mm 5 mps 736 mmHg 78%
    16:00 +25°C° 0.1 mm 5 mps 736 mmHg 77%
    17:00 +25°C° 1.3 mm 5 mps 736 mmHg 82%
    18:00 +23°C° 1.3 mm 5 mps 736 mmHg 86%
    19:00 +22°C° 1.3 mm 4 mps 735 mmHg 91%
    20:00 +21°C° 2.3 mm 4 mps 735 mmHg 92%
    21:00 +21°C° 2.3 mm 4 mps 735 mmHg 93%
    22:00 +21°C° 2.3 mm 4 mps 735 mmHg 93%
    23:00 +21°C° 0.5 mm 5 mps 735 mmHg 93%

    Day after tomorrow, 18 July, Wednesday

    Time Temperature Precipitation Wind Pressure Humidity
    00:00 +20°C° 0.5 mm 5 mps 735 mmHg 93%
    01:00 +20°C° 0.5 mm 5 mps 734 mmHg 93%
    02:00 +20°C° 0.7 mm 5 mps 734 mmHg 93%
    03:00 +20°C° 0.7 mm 5 mps 734 mmHg 93%
    04:00 +19°C° 0.7 mm 5 mps 734 mmHg 93%
    05:00 +19°C° 1.3 mm 4 mps 734 mmHg 94%
    06:00 +19°C° 1.3 mm 4 mps 734 mmHg 95%
    07:00 +19°C° 1.3 mm 4 mps 734 mmHg 96%
    08:00 +20°C° 0.3 mm 4 mps 734 mmHg 93%
    09:00 +22°C° 0.3 mm 4 mps 734 mmHg 90%
    10:00 +23°C° 0.3 mm 4 mps 735 mmHg 86%
    11:00 +25°C° 0.7 mm 3 mps 735 mmHg 82%
    12:00 +26°C° 0.7 mm 3 mps 735 mmHg 78%
    13:00 +27°C° 0.7 mm 3 mps 735 mmHg 74%
    14:00 +28°C° 0.5 mm 3 mps 735 mmHg 72%
    15:00 +28°C° 0.5 mm 2 mps 735 mmHg 70%
    16:00 +28°C° 0.5 mm 2 mps 735 mmHg 69%
    17:00 +27°C° 0.7 mm 2 mps 735 mmHg 74%
    18:00 +26°C° 0.7 mm 2 mps 735 mmHg 80%
    19:00 +25°C° 0.7 mm 2 mps 735 mmHg 85%
    20:00 +24°C° 0.2 mm 2 mps 736 mmHg 88%
    21:00 +23°C° 0.2 mm 2 mps 736 mmHg 90%
    22:00 +20°C° 0.2 mm 2 mps 736 mmHg 92%
    23:00 +20°C° 0.1 mm 2 mps 736 mmHg 92%

    19 July, Thursday

    Time Temperature Precipitation Wind Pressure Humidity
    00:00 +20°C° 0.1 mm 2 mps 736 mmHg 93%
    01:00 +19°C° 0.1 mm 2 mps 736 mmHg 94%
    02:00 +19°C° 0.2 mm 2 mps 736 mmHg 93%
    03:00 +20°C° 0.2 mm 1 mps 736 mmHg 93%
    04:00 +19°C° 0.2 mm 1 mps 736 mmHg 93%
    05:00 +20°C° 0 mm 1 mps 736 mmHg 90%
    06:00 +21°C° 0 mm 1 mps 736 mmHg 88%
    07:00 +22°C° 0 mm 1 mps 736 mmHg 86%
    08:00 +24°C° 0.4 mm 1 mps 736 mmHg 82%
    09:00 +25°C° 0.4 mm 2 mps 736 mmHg 78%
    10:00 +26°C° 0.4 mm 2 mps 737 mmHg 75%
    11:00 +27°C° 0.4 mm 2 mps 737 mmHg 71%
    12:00 +28°C° 0.4 mm 2 mps 737 mmHg 67%
    13:00 +28°C° 0.4 mm 1 mps 737 mmHg 63%
    14:00 +29°C° 0.1 mm 1 mps 737 mmHg 61%
    15:00 +29°C° 0.1 mm 1 mps 737 mmHg 59%
    16:00 +29°C° 0.1 mm 1 mps 737 mmHg 57%
    17:00 +27°C° 0 mm 0 mps 737 mmHg 61%
    18:00 +26°C° 0 mm 0 mps 737 mmHg 65%
    19:00 +26°C° 0 mm 0 mps 737 mmHg 69%
    20:00 +24°C° 0.1 mm 0 mps 737 mmHg 73%
    21:00 +22°C° 0.1 mm 0 mps 737 mmHg 76%
    22:00 +21°C° 0.1 mm 0 mps 737 mmHg 79%
    23:00 +20°C° 0.3 mm 0 mps 737 mmHg 81%

    20 July, Friday

    Time Temperature Precipitation Wind Pressure Humidity
    00:00 +20°C° 0.3 mm 0 mps 737 mmHg 82%
    01:00 +19°C° 0.3 mm 0 mps 737 mmHg 84%
    02:00 +19°C° 0.1 mm 0 mps 737 mmHg 85%
    03:00 +19°C° 0.1 mm 0 mps 737 mmHg 86%
    04:00 +18°C° 0.1 mm 0 mps 737 mmHg 87%
    05:00 +19°C° 0 mm 0 mps 737 mmHg 85%
    06:00 +21°C° 0 mm 0 mps 737 mmHg 83%
    07:00 +22°C° 0 mm 0 mps 738 mmHg 82%
    08:00 +25°C° 0.6 mm 1 mps 738 mmHg 79%
    09:00 +26°C° 0.6 mm 1 mps 738 mmHg 76%
    10:00 +27°C° 0.6 mm 1 mps 738 mmHg 73%
    11:00 +27°C° 0.8 mm 1 mps 738 mmHg 70%
    12:00 +28°C° 0.8 mm 1 mps 738 mmHg 68%
    13:00 +29°C° 0.8 mm 1 mps 738 mmHg 65%
    14:00 +29°C° 0.4 mm 1 mps 738 mmHg 65%
    15:00 +28°C° 0.4 mm 1 mps 738 mmHg 66%
    16:00 +28°C° 0.4 mm 1 mps 738 mmHg 67%
    17:00 +28°C° 0.3 mm 2 mps 737 mmHg 71%
    18:00 +27°C° 0.3 mm 2 mps 737 mmHg 76%
    19:00 +27°C° 0.3 mm 2 mps 737 mmHg 80%
    20:00 +25°C° 0.5 mm 2 mps 737 mmHg 84%
    21:00 +24°C° 0.5 mm 2 mps 737 mmHg 88%
    22:00 +21°C° 0.5 mm 2 mps 737 mmHg 93%
    23:00 +21°C° 0.2 mm 2 mps 737 mmHg 93%

    21 July, Saturday

    Time Temperature Precipitation Wind Pressure Humidity
    00:00 +20°C° 0.2 mm 2 mps 737 mmHg 94%
    01:00 +20°C° 0.2 mm 2 mps 737 mmHg 95%
    02:00 +19°C° 0 mm 2 mps 737 mmHg 95%
    03:00 +19°C° 0 mm 2 mps 737 mmHg 95%
    04:00 +19°C° 0 mm 1 mps 738 mmHg 96%
    05:00 +19°C° 0.1 mm 2 mps 738 mmHg 94%
    06:00 +20°C° 0.1 mm 3 mps 738 mmHg 93%
    07:00 +21°C° 0.1 mm 3 mps 738 mmHg 92%
    08:00 +22°C° 0.1 mm 4 mps 738 mmHg 88%
    09:00 +23°C° 0.1 mm 4 mps 738 mmHg 84%
    10:00 +25°C° 0.1 mm 5 mps 738 mmHg 79%
    11:00 +26°C° 0.3 mm 5 mps 739 mmHg 77%
    12:00 +26°C° 0.3 mm 5 mps 739 mmHg 75%
    13:00 +27°C° 0.3 mm 5 mps 739 mmHg 73%
    14:00 +27°C° 0.4 mm 5 mps 739 mmHg 73%
    15:00 +27°C° 0.4 mm 5 mps 739 mmHg 73%
    16:00 +27°C° 0.4 mm 5 mps 739 mmHg 73%
    17:00 +26°C° 0.1 mm 4 mps 739 mmHg 76%
    18:00 +25°C° 0.1 mm 4 mps 739 mmHg 78%
    19:00 +25°C° 0.1 mm 4 mps 739 mmHg 81%
    20:00 +22°C° 0 mm 4 mps 739 mmHg 82%
    21:00 +21°C° 0 mm 4 mps 739 mmHg 82%
    22:00 +20°C° 0 mm 4 mps 740 mmHg 83%
    23:00 +19°C° 0 mm 5 mps 740 mmHg 81%
    Show more